www.pogodaiklimat.ru

Погода и климат >> Архив погоды >> Россия >> Тюменская область >> Тюмень


АРХИВ ПОГОДЫ в Тюмени

Время (UTC), дата Ветер
(напр.,м/с)
 
Видим.   Явления Облачность Т
(С)
Тd
(С)
f
(%)
Тe
(С)
Тes
(С)
Комфортность P
(гПа)
Po
(гПа)
Тmin
(С)
Tmax
(С)
R
(мм)
R24
(мм)
S
(см)
03 11.10 ЮЗ 3 4000 м дождь 10/0 300 м
[As op]
+7.7 +7.1 96 +5 +5 тепло 998.1 986.0 +5.0 8
06 11.10 Ю 4
{10}
4000 м слабый дождь {морось} 10/10 300 м
[Frnb Ns]
+7.9 +6.6 91 +4 +4 по сезону 994.7 982.6
09 11.10 ЮЗ 4 4000 м {ливн. осадки, дождь} 10/8 600 м
[Cb cap Ac und]
+8.0 +5.7 85 +5 +5 по сезону 993.8 981.7
12 11.10 Ю 2 4000 м {ливн. осадки, дождь} 8/4 600 м
[Cb cap Ac trans Ci sp]
+8.0 +3.9 75 +6 +6 по сезону 993.4 981.4
15 11.10 З 4 4000 м слабая морось {ливн. осадки} 10/10 300 м
[St]
+5.6 +4.6 93 +1 +1 по сезону 994.7 982.5 +9.0 2
18 11.10 З 4
{11}
4000 м слабый дождь {ливн. осадки} 10/10 300 м
[Frnb Ns]
+2.6 +1.7 94 -2 -2 прохладно 997.2 984.8
21 11.10 З 3 4000 м слабый дождь 10/10 300 м
[Frnb Ns]
+1.5 +0.8 95 -3 -3 прохладно 999.2 986.8
00 12.10 СЗ 4 4000 м слабый снег {дождь} 10/0 300 м
[As op]
+1.2 +0.5 95 -4 -4 прохладно 1001.0 988.5
03 12.10 СЗ 3 4000 м слабый дождь {снег} 10/10 300 м
[Frnb Ns]
+2.0 +1.2 94 -2 -2 прохладно 1002.7 990.2 +1.0 2
06 12.10 СЗ 3
{10}
4000 м в посл. час ливневой снег 10/4 600 м
[Cb cap Ac trans]
+2.2 -0.2 84 -2 -1 прохладно 1004.6 992.1
09 12.10 СЗ 4 4000 м в посл. час ливневой снег 9/5 600 м
[Cb cap Ac trans]
+2.8 -0.6 78 -2 -1 холодно 1005.6 993.1
12 12.10 З 2
{10}
4000 м в посл. час ливневой снег 9/4 600 м
[Cb cap Ac trans Cc]
+0.4 -1.0 90 -3 -3 очень
холодно
1006.8 994.2
15 12.10 ЮЗ 1 20 км {ливн. осадки} 3/0
[Ci fib]
-1.4 -2.1 95 -4 -4 холодно 1007.3 994.6 +2.9 1
18 12.10 ЮЗ 2 20 км {ливн. осадки} 3/0
[Ac trans]
-2.0 -3.4 90 -6 -6 холодно 1006.4 993.7
21 12.10 З 2 20 км в посл. час крупа 8/8 600 м
[Cb cap]
-1.7 -2.7 93 -6 -6 холодно 1005.8 993.1
00 13.10 ЮЗ 1 20 км {ливн. осадки} ясно -3.7 -4.2 96 -6 -6 холодно 1005.7 992.9
03 13.10 ЮЗ 1 4000 м 9/3 600 м
[Sc Ac trans Ci fib]
-2.7 -3.2 96 -5 -5 холодно 1005.6 992.9 -4.2 0.0
06 13.10 З 2 4000 м 10/10 600 м
[Sc]
+0.8 -1.6 84 -3 -3 холодно 1005.7 993.1
09 13.10 З 3 4000 м в посл. час ливневой снег 10/10 600 м
[Sc]
+1.7 -1.5 79 -2 -2 холодно 1006.0 993.4
12 13.10 З 2 4000 м слабая крупа {ливн. осадки} 10/10 600 м
[Cb cap]
+2.0 -0.6 83 -1 -1 холодно 1006.4 993.9
15 13.10 ЮЗ 1 4000 м слабый ливневой снег 10/6 600 м
[Cb cap Ac und]
+0.1 -0.5 96 -2 -2 прохладно 1007.2 994.6 +2.6 0.1
18 13.10 З 2 20 км в посл. час ливневой снег 4/0
[Cs]
-0.9 -1.2 98 -5 -5 холодно 1007.2 994.5
21 13.10 З 2 20 км 6/0
[Ci sp]
-1.3 -1.6 98 -5 -5 прохладно 1007.3 994.6
00 14.10 З 2 4000 м слабый ливневой снег 10/10 600 м
[Cb cap]
-1.2 -1.4 99 -5 -5 прохладно 1007.6 994.9
03 14.10 З 2 4000 м слабый ливневой снег 10/10 600 м
[Cb cap]
-1.2 -1.4 99 -5 -5 холодно 1008.2 995.5 -1.8 0.4 1
06 14.10 ЮЗ 2 4000 м слабый ливневой снег 10/10 600 м
[Cb cap]
+0.4 -0.1 96 -3 -3 прохладно 1008.9 996.3
09 14.10 З 3 4000 м слабый ливневой снег 10/10 600 м
[Cb cap]
+1.2 -0.1 91 -3 -3 холодно 1010.0 997.4
12 14.10 З 2 4000 м слабый ливневой снег 9/8 600 м
[Cb cap Ac trans Ci fib]
+1.2 -0.2 90 -2 -2 холодно 1011.0 998.4
15 14.10 З 1 4000 м слабый ливневой снег 10/10 600 м
[Cb cap]
+0.3 +0.1 99 -2 -2 прохладно 1012.4 999.7 +1.8 1
18 14.10 СЗ 2 20 км {ливн. осадки} 9/9 300 м
[St]
-0.3 -0.6 98 -4 -4 прохладно 1013.2 1000.5
21 14.10 С 2 4000 м слабый ливневой снег 10/10 300 м
[Cb cap]
-0.7 -1.0 98 -5 -5 прохладно 1014.7 1002.0
00 15.10 С 2 4000 м слабый ливневой снег 10/10 720 м
[Cb cap]
-1.5 -2.2 95 -6 -6 прохладно 1016.5 1003.7
03 15.10 С 2 4000 м {ливн. осадки} 10/10 270 м
[St]
-1.5 -2.2 95 -6 -6 холодно 1016.5 1005.3 -1.7 0.7 1
06 15.10 СЗ 2 4000 м {ливн. осадки} 10/10 200 м
[St]
-0.7 -1.5 94 -5 -5 холодно 1019.6 1006.8
09 15.10 С 2 4000 м 10/3 300 м
[Cu hum As op]
+0.5 -1.6 86 -3 -3 холодно 1020.2 1007.4
12 15.10 штиль 0 4000 м 10/0
[Ac As]
+0.5 -2.0 83 -1 -1 прохладно 1021.4 1008.6
15 15.10 СЗ 1 20 км 10/0
[Ac As]
-0.1 -3.1 80 -2 -2 прохладно 1022.5 1009.7 +0.6
18 15.10 С 1 20 км 10/0
[Ac As]
-0.4 -3.3 81 -2 -2 по сезону 1023.1 1010.3
21 15.10 З 1 20 км 10/0
[Ac und]
-0.9 -3.1 85 -3 -3 прохладно 1023.3 1010.5
00 16.10 штиль 0 20 км 10/0
[Ac und]
-2.1 -3.0 94 -3 -3 по сезону 1023.2 1010.3
03 16.10 штиль 0 4000 м 9/8 600 м
[Sc Ac trans]
-2.9 -3.3 97 -4 -4 прохладно 1023.9 1010.9 -3.1
06 16.10 Ю 3 4000 м 9/0
[Ac As]
+0.4 -4.4 70 -4 -3 холодно 1022.8 1010.0
09 16.10 ЮЗ 5 4000 м 6/3 600 м
[Cu med, cong Ac trans Ci fib]
+1.5 -5.6 59 -4 -3 холодно 1021.4 1008.7
12 16.10 Ю 2 4000 м 9/0
[Ac As Ci sp]
+0.9 -5.2 64 -2 -2 холодно 1019.8 1007.0
15 16.10 Ю 3 20 км 10/0
[As op]
+0.8 -4.9 66 -3 -3 прохладно 1017.8 1005.1 +2.0
18 16.10 Ю 3 4000 м слабый ливневой снег 10/10 600 м
[Cb cap]
-0.0 -2.6 83 -5 -5 прохладно 1015.4 1002.7
21 16.10 Ю 3 20 км {ливн. осадки} 10/0
[Ac As]
+0.2 -1.0 92 -5 -5 прохладно 1012.5 999.9
00 17.10 Ю 3 20 км {ливн. осадки} 10/0
[Ac As]
+1.0 -0.0 93 -4 -4 по сезону 1009.8 997.2
03 17.10 Ю 4 4000 м слабая морось 10/10 600 м
[St]
+1.5 +1.2 98 -4 -4 прохладно 1006.9 994.4 -0.4 0.3
06 17.10 Ю 4 4000 м {морось} 10/10 240 м
[St]
+2.9 +2.5 97 -2 -2 прохладно 1003.3 990.8
09 17.10 Ю 3 4000 м слабая морось 10/10 300 м
[St]
+4.2 +3.9 98 0 0 по сезону 1000.0 987.6
12 17.10 ЮЗ 3 4000 м слабая морось {дождь} 10/10 300 м
[St]
+5.9 +5.7 99 +2 +2 по сезону 996.5 984.3
15 17.10 З 4
{13}
10 км слабый ливневой дождь {морось} 10/10 300 м
[Cb cap]
+6.4 +4.8 89 +3 +3 по сезону 995.0 982.8 +6.7 2
18 17.10 З 5-10
{12}
4000 м слабый ливневой дождь {морось} 10/10 600 м
[Cb cap]
+1.8 +0.5 91 -4 -4 прохладно 996.6 984.2

 

Местоположение метеостанции Тюмень (Тюменская область, Россия): широта 57.12 долгота 65.43 высота над уровнем моря 102 м.

В архиве по умолчанию представлена погода в Тюмени за последнюю неделю. Архивные данные за месяц целиком и за предыдущие месяцы, начиная с января 2011 года, Вы можете получить, выбрав интересующий диапазон дат из раскрывающегося списка и нажав кнопку "Ввод!".


*Определитесь, кто Вы:
робот инопланетянин человек

Внимание! Время в таблицах - всемирное. Для получения местного времени необходимо прибавить поправку, которая в Тюмени равна 5 ч.

Смотрите также архив погоды в соседних городах и на ближайших метеорологических станциях:

Погода в Тугулыме (Свердловская область, Россия) (46 км)
Погода в Ялуторовске (Тюменская область, Россия) (74 км)
Погода в Шатрово (Курганская область, Россия) (82 км)
Погода в Ярково (Тюменская область, Россия) (105 км)
Погода в Тавде (Свердловская область, Россия) (106 км)
Погода в Бутке (Свердловская область, Россия) (110 км)
Погода в Памятном (Курганская область, Россия) (123 км)
Погода в Туринске (Свердловская область, Россия) (147 км)
Погода в Ирбите (Свердловская область, Россия) (158 км)
Погода в Шадринске (Курганская область, Россия) (160 км)

Пояснения к столбцам:

Ветер - указаны скорость ветра в м/с - средняя за 10 мин, порывы в срок и между сроками (в фигурных скобках) и направление, откуда дует ветер: С - северный, СВ - северо-восточный, В - восточный, ЮВ - юго-восточный, Ю - южный, ЮЗ - юго-западный, З - западный, СЗ - северо-западный.
Видимость - горизонтальная дальность видимости в метрах или километрах. При видимости от 1 до 10 км при отсутствии осадков обычно наблюдается дымка, при ухудшении видимости до 1 км и менее - туман. В сухую погоду видимость может ухудшаться дымом, пылью или мглою.
Явления - указаны атмосферные явления, наблюдавшиеся в срок или в последний час перед сроком; фигурными скобками обозначены явления, наблюдавшиеся между сроками (за 1-3 часа до срока); квадратными скобками обозначены град или гололедные отложения с указанием их диаметра в мм.
Облачность - указаны через наклонную черту общая и нижняя облачность в баллах и высота нижней границы облаков в метрах; квадратными скобками обозначены формы облаков: Ci - перистые, Cs - перисто-слоистые, Cc - перисто-кучевые, Ac - высококучевые, As - высокослоистые, Sc - слоисто-кучевые, Ns - слоисто-дождевые, Cu - кучевые, Cb - кучево-дождевые. Подробнее классификацию облаков см. в Атласе облаков (PDF).
T - Температура воздуха - температура, измеренная на высоте 2 м над землей.
Td - Температура точки росы - температура, при понижении до которой содержащийся в воздухе водяной пар достигнет насыщения.
f - Относительная влажность воздуха - влажноcть воздуха, измеренная на высоте 2 м над землей.
Te - Эффективная температура - температура, которую ощущает одетый по сезону человек в тени. Характеристика душности погоды. При расчете учитывается влияние влажности воздуха и скорости ветра на теплоощущения человека.
Tes - Эффективная температура на солнце - температура, которую ощущает человек, с поправкой на солнечный нагрев. Характеристика знойности погоды. Зависит от высоты солнца над горизонтом, облачности и скорости ветра. Ночью, в пасмурную погоду, а также при ветре 12 м/с и более поправка равна нулю.
P - Атмосферное давление - приведенное к уровню моря атмосферное давление.
Po - Атмосферное давление - измеренное на уровне метеостанции атмосферное давление.
Tmin - Минимальная температура - минимум температуры воздуха на высоте 2 м над землей.
Tmax - Максимальная температура - максимум температуры воздуха на высоте 2 м над землей.
R - Количество осадков - Количество выпавших осадков за период времени, мм. При наведении курсора мыши на число - период времени, за который выпало указанное количество осадков.
R24 - Количество осадков - Количество выпавших осадков за 24 часа, мм.
S - Снежный покров - Высота снежного покрова, см. При наведении курсора мыши на число - состояние снежного покрова и степень покрытия местности в баллах.